GW0413 Weather Reports


time (UTC)temp
C
wind
direction
speed
KPH
gust
KPH
rain 1hr
cm
rain 24hr
cm
rain mn
cm
humidity
%
barometer
mb
20260906231535 25 227 8.0 17.7 0.00 0.00 0.00 33 1024.3
20260906230041 24 290 9.7 14.5 0.00 0.00 0.00 33 1024.4
20260906224536 24 256 9.7 20.9 0.00 0.00 0.00 35 1024.4
20260906223048 24 261 17.7 25.7 0.00 0.00 0.00 34 1024.5
20260906221535 24 238 14.5 22.5 0.00 0.00 0.00 34 1024.6
20260906220032 25 267 12.9 24.1 0.00 0.00 0.00 34 1024.6
20260906214541 25 226 11.3 22.5 0.00 0.00 0.00 33 1024.6
20260906213037 25 236 3.2 11.3 0.00 0.00 0.00 32 1024.6
20260906211536 25 346 3.2 11.3 0.00 0.00 0.00 31 1024.7
20260906210038 25 247 8.0 16.1 0.00 0.00 0.00 30 1024.8
20260906204532 25 327 4.8 14.5 0.00 0.00 0.00 30 1024.9
20260906203035 25 329 1.6 14.5 0.00 0.00 0.00 30 1025.2
20260906201558 25 276 1.6 9.7 0.00 0.00 0.00 29 1025.3
20260906200032 25 77 4.8 11.3 0.00 0.00 0.00 32 1025.6
20260906194534 25 249 4.8 14.5 0.00 0.00 0.00 30 1025.6
20260906193040 26 207 9.7 22.5 0.00 0.00 0.00 27 1025.6
20260906191534 26 157 11.3 22.5 0.00 0.00 0.00 29 1025.8
20260906190036 26 28 3.2 20.9 0.00 0.00 0.00 29 1025.9
20260906184536 24 31 0.0 11.3 0.00 0.00 0.00 30 1026.1
20260906183034 23 256 4.8 16.1 0.00 0.00 0.00 30 1026.4
20260906181544 23 223 11.3 17.7 0.00 0.00 0.00 31 1026.6
20260906180041 23 247 6.4 16.1 0.00 0.00 0.00 30 1026.9
20260906174535 25 256 8.0 19.3 0.00 0.00 0.00 29 1026.9
20260906173033 24 259 6.4 16.1 0.00 0.00 0.00 29 1027.1
20260906171534 23 248 4.8 12.9 0.00 0.00 0.00 32 1027.3
20260906170036 23 148 3.2 8.0 0.00 0.00 0.00 29 1027.2
20260906164533 23 192 1.6 11.3 0.00 0.00 0.00 30 1027.3
20260906163045 23 244 8.0 14.5 0.00 0.00 0.00 30 1027.2
20260906161536 23 227 4.8 16.1 0.00 0.00 0.00 29 1027.2
20260906160035 23 178 4.8 12.9 0.00 0.00 0.00 26 1027.1
20260906154537 23 221 6.4 12.9 0.00 0.00 0.00 28 1027.2
20260906153032 22 182 3.2 11.3 0.00 0.00 0.00 31 1027.1
20260906151537 22 238 3.2 6.4 0.00 0.00 0.00 30 1027.2
20260906150034 21 0 0.0 6.4 0.00 0.00 0.00 30 1027.2
20260906144538 18 36 4.8 8.0 0.00 0.00 0.00 41 1027.1
20260906143036 18 54 8.0 16.1 0.00 0.00 0.00 40 1027.1
20260906141538 18 51 9.7 14.5 0.00 0.00 0.00 41 1027.1
20260906140037 16 50 4.8 9.7 0.00 0.00 0.00 47 1027.1
20260906134532 15 56 8.0 14.5 0.00 0.00 0.00 49 1027.2
20260906133044 13 57 9.7 16.1 0.00 0.00 0.00 50 1027.1
20260906131535 12 61 8.0 14.5 0.00 0.00 0.00 52 1026.9
20260906130036 12 50 16.1 20.9 0.00 0.00 0.00 49 1026.6
20260906124532 12 57 11.3 16.1 0.00 0.00 0.00 50 1026.5
20260906123043 12 34 9.7 14.5 0.00 0.00 0.00 47 1026.5
20260906121544 12 61 9.7 16.1 0.00 0.00 0.00 48 1026.4
20260906120032 13 45 11.3 20.9 0.00 0.00 0.00 46 1026.3
20260906114537 13 47 16.1 17.7 0.00 0.00 0.00 45 1026.3
20260906113037 12 45 12.9 17.7 0.00 0.00 0.00 45 1026.4
20260906111533 13 62 9.7 14.5 0.00 0.00 0.00 46 1026.3
20260906110030 12 72 6.4 14.5 0.00 0.00 0.00 46 1026.3
20260906104536 13 32 14.5 17.7 0.00 0.00 0.00 43 1026.1
20260906103032 13 22 12.9 17.7 0.00 0.00 0.00 44 1026.2
20260906101531 13 25 14.5 17.7 0.00 0.00 0.00 44 1026.1
20260906100040 13 22 14.5 17.7 0.00 0.00 0.00 43 1026.1
20260906094535 13 21 14.5 17.7 0.00 0.00 0.00 41 1026.2
20260906093046 14 27 14.5 19.3 0.00 0.00 0.00 40 1026.1
20260906091534 13 28 14.5 19.3 0.00 0.00 0.00 40 1026.1
20260906090036 14 19 14.5 17.7 0.00 0.00 0.00 39 1026.3
20260906084533 14 26 14.5 19.3 0.00 0.00 0.00 39 1026.3
20260906083033 14 26 16.1 20.9 0.00 0.00 0.00 39 1026.4
20260906081549 15 21 16.1 20.9 0.00 0.00 0.00 38 1026.5
20260906080036 15 29 16.1 22.5 0.00 0.00 0.00 38 1026.6
20260906074536 15 24 19.3 24.1 0.00 0.00 0.00 37 1026.6
20260906073047 15 26 17.7 24.1 0.00 0.00 0.00 39 1026.5
20260906071533 14 31 16.1 22.5 0.00 0.00 0.00 40 1026.6
20260906070039 14 24 16.1 20.9 0.00 0.00 0.00 41 1026.6
20260906064534 15 26 16.1 19.3 0.00 0.00 0.00 41 1026.7
20260906063035 14 25 14.5 19.3 0.00 0.00 0.00 43 1026.6
20260906061534 14 21 14.5 17.7 0.00 0.00 0.00 43 1026.6
20260906060035 14 25 14.5 19.3 0.00 0.00 0.00 43 1026.7
20260906054533 14 24 16.1 19.3 0.00 0.00 0.00 44 1026.8
20260906053038 14 28 16.1 19.3 0.00 0.00 0.00 45 1026.9
20260906051535 14 24 16.1 20.9 0.00 0.00 0.00 47 1026.8
20260906050050 13 26 14.5 17.7 0.00 0.00 0.00 48 1026.9
20260906044535 12 26 12.9 16.1 0.00 0.00 0.00 53 1027.0
20260906043042 13 16 14.5 17.7 0.00 0.00 0.00 52 1027.0
20260906041533 13 20 12.9 16.1 0.00 0.00 0.00 50 1027.1
20260906040043 13 15 14.5 17.7 0.00 0.00 0.00 51 1027.0
20260906034535 13 31 14.5 17.7 0.00 0.00 0.00 51 1027.0
20260906033032 13 19 12.9 16.1 0.00 0.00 0.00 50 1026.9
20260906031531 14 19 11.3 17.7 0.00 0.00 0.00 48 1026.7
20260906030033 16 12 9.7 12.9 0.00 0.00 0.00 41 1026.6
20260906024536 18 5 8.0 14.5 0.00 0.00 0.00 36 1026.5
20260906023049 18 340 6.4 12.9 0.00 0.00 0.00 35 1026.1
20260906021535 19 338 8.0 17.7 0.00 0.00 0.00 35 1026.1
20260906020036 20 331 6.4 17.7 0.00 0.00 0.00 35 1026.0
20260906014543 20 284 8.0 16.1 0.00 0.00 0.00 35 1025.9
20260906013034 21 271 8.0 19.3 0.00 0.00 0.00 33 1025.8
20260906011544 22 252 9.7 19.3 0.00 0.00 0.00 33 1025.8
20260906010036 22 257 16.1 25.7 0.00 0.00 0.00 33 1025.8
20260906004535 23 246 16.1 29.0 0.00 0.00 0.00 33 1025.8
20260906003036 23 266 14.5 22.5 0.00 0.00 0.00 33 1025.8
20260906001534 23 232 11.3 24.1 0.00 0.00 0.00 34 1025.6
20260906000038 24 232 12.9 24.1 0.00 0.00 0.00 32 1025.6
20260905234545 24 240 12.9 25.7 0.00 0.00 0.00 31 1025.5
20260905233034 25 234 6.4 22.5 0.00 0.00 0.00 30 1025.5